Flag for Germany Weather past 2 weeks in Erfurt, Thuringia, Germany

Now
34 °F

Broken clouds.


Feels Like: 25 °F
Forecast: 36 / 39 °F
Wind: 13 mph from Southwest

Location: Erfurt-Bindersleben

Current Time: Jan 26, 2015 at 4:11:08 PM

Latest Report: Jan 26, 2015 at 3:20 PM


Visibility: N/A

Pressure: 30.01 "Hg

Humidity: 93%

Dew point: 32 °F

Location of ErfurtLocation

Historic Weather in Erfurt — Graph

°F

Erfurt temperature yesterday

Maximum temperature yesterday: 34 °F (at 12:20 AM)
Minimum temperature yesterday: 30 °F (at 5:50 AM)
Average temperature yesterday: 33 °F

Past Weeks' High & Low Weather Summary

 TemperatureHumidityPressure
High52 °F (Jan 13, 3:50 PM)100% (Jan 16, 4:50 PM)30.30 "Hg (Jan 16, 4:50 PM)
Low21 °F (Jan 24, 8:20 AM)50% (Jan 13, 2:50 PM)29.59 "Hg (Jan 15, 4:50 PM)
Average35 °F89%29.95 "Hg
* Reported Jan 11 2:20 PM — Jan 26 2:50 PM, Erfurt, Weather by CustomWeather, © 2014

Note: Actual official high and low records may vary slightly from our data, if they occured in-between our weather recording intervals... More about our weather records

Advertising

Erfurt weather history for previous 24 hours

 ConditionsComfort  
Time TempWeatherWind HumidityBarometerVisibility
2:50 PM
Jan 26
36 °FPartly sunny.13 mph87%30.04 "HgN/A
2:20 PM36 °FPartly sunny.13 mph87%30.07 "HgN/A
1:50 PM36 °FPartly sunny.13 mph87%30.07 "HgN/A
1:20 PM36 °FPartly sunny.12 mph87%30.09 "HgN/A
12:50 PM36 °FPartly sunny.12 mph87%30.09 "HgN/A
12:20 PM36 °FPartly sunny.13 mph87%30.09 "HgN/A
11:50 AM36 °FBroken clouds.9 mph87%30.12 "HgN/A
11:20 AM34 °FBroken clouds.9 mph93%30.15 "HgN/A
10:50 AM34 °FBroken clouds.10 mph93%30.15 "HgN/A
10:20 AM34 °FPartly sunny.10 mph93%30.15 "HgN/A
9:50 AM34 °FPartly sunny.9 mph93%30.18 "HgN/A
9:20 AM34 °FPartly sunny.7 mph93%30.18 "HgN/A
8:50 AM34 °FPartly sunny.6 mph93%30.21 "HgN/A
8:20 AM34 °FPartly sunny.7 mph93%30.21 "HgN/A
7:50 AM34 °FPassing clouds.8 mph93%30.21 "HgN/A
7:20 AM34 °FPassing clouds.8 mph93%30.21 "HgN/A
6:50 AM34 °FPassing clouds.7 mph93%30.21 "HgN/A
6:20 AM34 °FPassing clouds.9 mph93%30.21 "HgN/A
5:50 AM34 °FPartly cloudy.9 mph93%30.21 "HgN/A
5:20 AM34 °FPassing clouds.8 mph100%30.24 "HgN/A
4:50 AM34 °FPassing clouds.6 mph100%30.24 "HgN/A
4:20 AM32 °FPassing clouds.5 mph100%30.24 "HgN/A
3:50 AM32 °FPassing clouds.6 mph100%30.24 "HgN/A
3:20 AM32 °FPartly cloudy.6 mph100%30.27 "HgN/A
2:50 AM32 °FPassing clouds.8 mph100%30.27 "HgN/A
2:20 AM32 °FPassing clouds.7 mph100%30.27 "HgN/A
1:50 AM32 °FPassing clouds.10 mph100%30.27 "HgN/A
1:20 AM34 °FPassing clouds.12 mph100%30.27 "HgN/A
12:50 AM34 °FPassing clouds.12 mph100%30.27 "HgN/A
12:20 AM34 °FPassing clouds.8 mph100%30.27 "HgN/A
11:50 PM
Jan 25
34 °FPassing clouds.9 mph100%30.27 "HgN/A
11:20 PM34 °FSnow flurries. Passing clouds.8 mph100%30.27 "HgN/A
10:20 PM34 °FSnow flurries. Passing clouds.7 mph100%30.30 "HgN/A
9:50 PM34 °FSnow flurries. Partly cloudy.8 mph100%30.30 "HgN/A
9:20 PM34 °FSnow flurries. Partly cloudy.10 mph100%30.30 "HgN/A
8:50 PM34 °FSnow flurries. Partly cloudy.10 mph100%30.30 "HgN/A
8:20 PM34 °FSnow flurries. Passing clouds.8 mph100%30.30 "HgN/A
7:50 PM34 °FSnow flurries. Partly cloudy.8 mph100%30.30 "HgN/A
7:20 PM34 °FSnow flurries. Passing clouds.7 mph100%30.30 "HgN/A
6:50 PM34 °FPartly cloudy.6 mph100%30.30 "HgN/A
6:20 PM34 °FPartly cloudy.8 mph100%30.30 "HgN/A
5:50 PM34 °FPartly cloudy.9 mph100%30.30 "HgN/A
5:20 PM32 °FSnow flurries. Partly cloudy.10 mph100%30.30 "HgN/A
4:50 PM32 °FSnow flurries. Broken clouds.8 mph100%30.30 "Hg4 mi
4:20 PM32 °FSnow showers. Broken clouds.10 mph100%30.30 "Hg2 mi
Weather by CustomWeather, © 2014

See weather overviewHow to use our weather pages